When you browse on this site, cookies collect data to enhance your experience and personalize the content and advertising you see.
Visit our Privacy Policy to learn more. By continuing to use the site, you agree to this use of cookies and data.
  • In Denmark
  • List of Countries
  • For 7 days
  • Water Temperature
  • Satellite Maps
  • Weather Map
  • Weather Widgets
  • user-avatar
    Login

    Hourly Weather Salzburg

    Today, 14 December, Friday

    Time Temperature Precipitation Wind Pressure Humidity
    00:00 -12°C° 0 mm 1 mps 619 mmHg 85%
    01:00 -13°C° 0 mm 1 mps 619 mmHg 84%
    02:00 -13°C° 0 mm 1 mps 619 mmHg 84%
    03:00 -13°C° 0 mm 1 mps 619 mmHg 84%
    04:00 -13°C° 0 mm 1 mps 619 mmHg 85%
    05:00 -13°C° 0 mm 1 mps 619 mmHg 85%
    06:00 -13°C° 0 mm 1 mps 619 mmHg 85%
    07:00 -13°C° 0 mm 1 mps 619 mmHg 85%
    08:00 -12°C° 0 mm 1 mps 620 mmHg 83%
    09:00 -11°C° 0 mm 1 mps 621 mmHg 81%
    10:00 -10°C° 0 mm 1 mps 621 mmHg 79%
    11:00 -9°C° 0 mm 1 mps 621 mmHg 77%
    12:00 -8°C° 0 mm 1 mps 622 mmHg 75%
    13:00 -7°C° 0 mm 1 mps 622 mmHg 73%
    14:00 -8°C° 0 mm 1 mps 622 mmHg 79%
    15:00 -9°C° 0 mm 1 mps 621 mmHg 84%
    16:00 -10°C° 0 mm 1 mps 621 mmHg 89%
    17:00 -10°C° 0 mm 1 mps 621 mmHg 90%
    18:00 -11°C° 0 mm 1 mps 621 mmHg 91%
    19:00 -12°C° 0 mm 1 mps 621 mmHg 92%
    20:00 -12°C° 0 mm 1 mps 621 mmHg 91%
    21:00 -12°C° 0 mm 1 mps 622 mmHg 91%
    22:00 -13°C° 0 mm 1 mps 622 mmHg 90%
    23:00 -12°C° 0 mm 1 mps 622 mmHg 89%

    Tomorrow, 15 December, Saturday

    Time Temperature Precipitation Wind Pressure Humidity
    00:00 -12°C° 0 mm 1 mps 622 mmHg 88%
    01:00 -12°C° 0 mm 1 mps 622 mmHg 88%
    02:00 -12°C° 0.1 mm 1 mps 622 mmHg 88%
    03:00 -12°C° 0.1 mm 1 mps 622 mmHg 89%
    04:00 -12°C° 0.1 mm 1 mps 623 mmHg 90%
    05:00 -12°C° 0.1 mm 1 mps 623 mmHg 90%
    06:00 -12°C° 0.1 mm 1 mps 623 mmHg 90%
    07:00 -12°C° 0.1 mm 1 mps 623 mmHg 91%
    08:00 -12°C° 0 mm 1 mps 623 mmHg 89%
    09:00 -11°C° 0 mm 1 mps 624 mmHg 87%
    10:00 -10°C° 0 mm 1 mps 624 mmHg 85%
    11:00 -9°C° 0 mm 1 mps 624 mmHg 82%
    12:00 -8°C° 0 mm 1 mps 624 mmHg 80%
    13:00 -8°C° 0 mm 1 mps 624 mmHg 78%
    14:00 -8°C° 0 mm 1 mps 623 mmHg 81%
    15:00 -9°C° 0 mm 1 mps 623 mmHg 85%
    16:00 -10°C° 0 mm 1 mps 623 mmHg 88%
    17:00 -11°C° 0 mm 1 mps 623 mmHg 87%
    18:00 -12°C° 0 mm 1 mps 622 mmHg 86%
    19:00 -13°C° 0 mm 1 mps 622 mmHg 85%
    20:00 -13°C° 0 mm 1 mps 622 mmHg 82%
    21:00 -13°C° 0 mm 1 mps 622 mmHg 79%
    22:00 -13°C° 0 mm 1 mps 622 mmHg 76%
    23:00 -12°C° 0 mm 1 mps 622 mmHg 74%

    Day after tomorrow, 16 December, Sunday

    Time Temperature Precipitation Wind Pressure Humidity
    00:00 -12°C° 0 mm 1 mps 621 mmHg 71%
    01:00 -12°C° 0 mm 1 mps 621 mmHg 68%
    02:00 -12°C° 0 mm 1 mps 621 mmHg 66%
    03:00 -11°C° 0 mm 1 mps 621 mmHg 64%
    04:00 -11°C° 0 mm 1 mps 620 mmHg 63%
    05:00 -10°C° 0 mm 1 mps 621 mmHg 63%
    06:00 -9°C° 0 mm 1 mps 621 mmHg 63%
    07:00 -9°C° 0 mm 1 mps 621 mmHg 63%
    08:00 -7°C° 0 mm 1 mps 622 mmHg 65%
    09:00 -6°C° 0 mm 1 mps 622 mmHg 67%
    10:00 -4°C° 0 mm 1 mps 622 mmHg 69%
    11:00 -3°C° 0 mm 1 mps 622 mmHg 72%
    12:00 -2°C° 0 mm 1 mps 623 mmHg 74%
    13:00 -1°C° 0 mm 1 mps 623 mmHg 77%
    14:00 -1°C° 0 mm 1 mps 623 mmHg 79%
    15:00 -2°C° 0 mm 1 mps 622 mmHg 81%
    16:00 -2°C° 0 mm 1 mps 622 mmHg 83%
    17:00 -4°C° 0.3 mm 0 mps 622 mmHg 85%
    18:00 -4°C° 0.3 mm 0 mps 623 mmHg 87%
    19:00 -4°C° 0.3 mm 0 mps 623 mmHg 89%
    20:00 -4°C° 0.7 mm 0 mps 623 mmHg 91%
    21:00 -4°C° 0.7 mm 0 mps 623 mmHg 92%
    22:00 -4°C° 0.7 mm 0 mps 623 mmHg 94%
    23:00 -4°C° 0.5 mm 0 mps 623 mmHg 94%

    17 December, Monday

    Time Temperature Precipitation Wind Pressure Humidity
    00:00 -3°C° 0.5 mm 1 mps 623 mmHg 94%
    01:00 -3°C° 0.5 mm 1 mps 623 mmHg 95%
    02:00 -3°C° 0.1 mm 1 mps 623 mmHg 94%
    03:00 -4°C° 0.1 mm 1 mps 622 mmHg 93%
    04:00 -4°C° 0.1 mm 1 mps 622 mmHg 93%
    05:00 -4°C° 0 mm 1 mps 622 mmHg 92%
    06:00 -6°C° 0 mm 1 mps 622 mmHg 92%
    07:00 -6°C° 0 mm 1 mps 622 mmHg 91%
    08:00 -4°C° 0 mm 1 mps 623 mmHg 91%
    09:00 -4°C° 0 mm 1 mps 623 mmHg 90%
    10:00 -3°C° 0 mm 1 mps 624 mmHg 89%
    11:00 -2°C° 0 mm 1 mps 624 mmHg 89%
    12:00 -2°C° 0 mm 1 mps 625 mmHg 89%
    13:00 -1°C° 0 mm 1 mps 625 mmHg 89%
    14:00 -2°C° 0 mm 1 mps 625 mmHg 90%
    15:00 -2°C° 0 mm 1 mps 625 mmHg 92%
    16:00 -3°C° 0 mm 1 mps 625 mmHg 94%
    17:00 -4°C° 0 mm 1 mps 626 mmHg 94%
    18:00 -4°C° 0 mm 1 mps 626 mmHg 94%
    19:00 -6°C° 0 mm 1 mps 627 mmHg 94%
    20:00 -7°C° 0 mm 2 mps 627 mmHg 94%
    21:00 -7°C° 0 mm 2 mps 628 mmHg 93%
    22:00 -7°C° 0 mm 2 mps 628 mmHg 92%
    23:00 -7°C° 0 mm 2 mps 628 mmHg 91%

    18 December, Tuesday

    Time Temperature Precipitation Wind Pressure Humidity
    00:00 -7°C° 0 mm 2 mps 628 mmHg 90%
    01:00 -7°C° 0 mm 2 mps 628 mmHg 89%
    02:00 -7°C° 0 mm 2 mps 628 mmHg 89%
    03:00 -7°C° 0 mm 2 mps 628 mmHg 89%
    04:00 -8°C° 0 mm 2 mps 628 mmHg 89%
    05:00 -7°C° 0 mm 1 mps 628 mmHg 89%
    06:00 -7°C° 0 mm 1 mps 628 mmHg 89%
    07:00 -7°C° 0 mm 1 mps 628 mmHg 90%
    08:00 -6°C° 0 mm 1 mps 629 mmHg 88%
    09:00 -4°C° 0 mm 1 mps 629 mmHg 86%
    10:00 -3°C° 0 mm 1 mps 629 mmHg 84%
    11:00 -2°C° 0 mm 1 mps 629 mmHg 82%
    12:00 -1°C° 0 mm 1 mps 629 mmHg 81%
    13:00 0°C° 0 mm 1 mps 629 mmHg 79%
    14:00 -1°C° 0 mm 1 mps 628 mmHg 81%
    15:00 -2°C° 0 mm 1 mps 627 mmHg 82%
    16:00 -3°C° 0 mm 1 mps 626 mmHg 84%
    17:00 -6°C° 0 mm 2 mps 626 mmHg 80%
    18:00 -7°C° 0 mm 2 mps 626 mmHg 76%
    19:00 -8°C° 0 mm 2 mps 626 mmHg 72%
    20:00 -8°C° 0 mm 2 mps 626 mmHg 69%
    21:00 -8°C° 0 mm 2 mps 625 mmHg 67%
    22:00 -8°C° 0 mm 2 mps 625 mmHg 64%
    23:00 -8°C° 0 mm 2 mps 625 mmHg 63%

    19 December, Wednesday

    Time Temperature Precipitation Wind Pressure Humidity
    00:00 -7°C° 0 mm 2 mps 625 mmHg 62%
    01:00 -7°C° 0 mm 2 mps 624 mmHg 61%
    02:00 -7°C° 0 mm 2 mps 624 mmHg 61%
    03:00 -7°C° 0 mm 2 mps 624 mmHg 61%
    04:00 -6°C° 0 mm 2 mps 624 mmHg 61%
    05:00 -4°C° 0 mm 1 mps 624 mmHg 61%
    06:00 -4°C° 0 mm 1 mps 624 mmHg 62%
    07:00 -4°C° 0 mm 1 mps 624 mmHg 63%
    08:00 -3°C° 0 mm 1 mps 624 mmHg 64%
    09:00 -2°C° 0 mm 1 mps 624 mmHg 65%
    10:00 -2°C° 0 mm 1 mps 625 mmHg 67%
    11:00 -1°C° 0 mm 1 mps 625 mmHg 68%
    12:00 -1°C° 0 mm 0 mps 625 mmHg 70%
    13:00 0°C° 0 mm 0 mps 625 mmHg 71%
    14:00 -1°C° 0 mm 0 mps 624 mmHg 72%
    15:00 -3°C° 0 mm 0 mps 624 mmHg 73%
    16:00 -4°C° 0 mm 0 mps 623 mmHg 74%
    17:00 -3°C° 0 mm 1 mps 623 mmHg 75%
    18:00 -4°C° 0 mm 1 mps 623 mmHg 76%
    19:00 -4°C° 0 mm 1 mps 623 mmHg 77%
    20:00 -4°C° 0 mm 1 mps 624 mmHg 78%
    21:00 -4°C° 0 mm 1 mps 624 mmHg 79%
    22:00 -4°C° 0 mm 1 mps 624 mmHg 80%
    23:00 -4°C° 0 mm 1 mps 624 mmHg 81%
    Show more